This demonstration page uses our WeatherBlox Daily Observations layout. Learn more.

Left ArrowRight Arrow

Hourly Observations for September 10, 2020

Temp ( °F °C ) Dew Point ( °F °C ) Humidity (%) Winds ( mph kmh ) Pressure ( in mb ) Visibility ( mi km ) Precip ( " mm )
12:45 am 00:45 Cloudy with Light Rain 46 7.8 44 6.7 93 93 N 9 15 30.42 1030 8 12.87472 0.04 1.016
12:54 am 00:54 Cloudy with Light Rain 47 8.3 44 6.7 90 90 N 12 19 30.41 1030 8 12.87472 0.05 1.27
1:01 am 01:01 Cloudy with Light Rain 46 7.8 43 6.1 89 89 N 12 19 30.42 1030 8 12.87472 0.001 0.001
1:09 am 01:09 Cloudy with Light Rain 46 7.8 43 6.1 89 89 N 12 19 30.42 1030 9 14.48406 0.01 0.254
1:21 am 01:21 Cloudy with Light Rain 46 7.8 43 6.1 89 89 N 10 17 30.43 1031 9 14.48406 0.01 0.254
1:29 am 01:29 Cloudy with Light Rain 46 7.8 43 6.1 89 89 N 12 19 30.43 1031 8 12.87472 0.02 0.508
1:49 am 01:49 Cloudy with Light Rain 46 8 43 6 87 87 N 15 24 30.43 1031 9 14.48406 0.03 0.762
1:54 am 01:54 Cloudy with Light Rain 46 7.8 43 6.1 89 89 N 14 22 30.42 1030 9 14.48406 0.03 0.762
2:54 am 02:54 Cloudy with Light Rain 46 7.8 43 6.1 89 89 N 15 24 30.39 1029 8 12.87472 0.01 0.254
3:14 am 03:14 Cloudy with Light Rain 46 7.8 43 6.1 89 89 N 15 24 30.41 1030 9 14.48406 0.01 0.254
3:54 am 03:54 Cloudy with Light Rain 46 7.8 43 6.1 89 89 N 13 20 30.4 1030 8 12.87472 0.02 0.508
4:54 am 04:54 Cloudy with Light Rain 46 7.8 42 5.6 86 86 N 12 19 30.41 1030 10 16.0934 0.01 0.254
5:54 am 05:54 Cloudy with Light Rain 46 7.8 43 6.1 89 89 N 13 20 30.4 1030 9 14.48406 0.001 0.001
6:54 am 06:54 Cloudy with Light Rain 46 7.8 43 6.1 89 89 N 10 17 30.42 1030 9 14.48406 0.03 0.762
7:54 am 07:54 Cloudy with Light Rain 46 7.8 43 6.1 89 89 NNE 9 15 30.42 1030 9 14.48406 0.01 0.254
8:54 am 08:54 Cloudy with Light Rain 47 8.3 44 6.7 90 90 NNE 12 19 30.4 1030 6 9.65604 0.01 0.254
9:54 am 09:54 Cloudy with Light Rain 49 9.4 45 7.2 86 86 N 14 22 30.42 1030 6 9.65604 0.01 0.254
10:54 am 10:54 Cloudy with Light Rain 49 9.4 45 7.2 86 86 N 14 22 30.43 1031 6 9.65604 0.001 0.001
11:27 am 11:27 Cloudy with Light Rain 49 9.4 46 7.8 90 90 N 14 22 30.42 1030 2.5 4.02335 0.001 0.001
11:54 am 11:54 Cloudy with Light Rain 50 10 47 8.3 89 89 N 15 24 30.42 1030 2.5 4.02335 0.001 0.001
12:08 pm 12:08 Cloudy with Light Rain 50 10 47 8.3 89 89 N 14 22 30.41 1030 3 4.82802 0.01 0.254
12:54 pm 12:54 Cloudy 51 10.6 47 8.3 86 86 NNE 12 19 30.41 1030 7 11.26538 0.01 0.254
1:29 pm 13:29 Cloudy 52 11.1 47 8.3 83 83 NNE 13 20 30.4 1029 9 14.48406 0.001 0.001
1:54 pm 13:54 Cloudy 53 11.7 48 8.9 83 83 NNE 13 20 30.39 1029 8 12.87472 0.001 0.001
2:11 pm 14:11 Cloudy 53 11.7 48 8.9 83 83 NNE 14 22 30.38 1029 8 12.87472 0 0
2:54 pm 14:54 Cloudy 53 11.7 48 8.9 83 83 NNE 12 19 30.38 1029 7 11.26538 0 0
3:12 pm 15:12 Cloudy 54 12.2 49 9.4 83 83 NE 12 19 30.37 1028 9 14.48406 0 0
3:54 pm 15:54 Cloudy 55 12.8 49 9.4 80 80 NE 10 17 30.36 1028 10 16.0934 0 0
4:54 pm 16:54 Cloudy 54 12.2 49 9.4 83 83 NNE 12 19 30.34 1028 8 12.87472 0 0
5:28 pm 17:28 Cloudy 55 12.8 49 9.4 80 80 NE 10 17 30.34 1027 10 16.0934 0 0
5:38 pm 17:38 Cloudy 55 12.8 49 9.4 80 80 NNE 13 20 30.34 1027 9 14.48406 0 0
5:54 pm 17:54 Cloudy 54 12.2 49 9.4 83 83 NE 12 19 30.34 1028 9 14.48406 0 0
6:24 pm 18:24 Cloudy 55 12.8 49 9.4 80 80 NNE 8 13 30.34 1027 10 16.0934 0 0
6:54 pm 18:54 Cloudy 54 12.2 49 9.4 83 83 NNE 8 13 30.34 1027 9 14.48406 0 0
7:26 pm 19:26 Cloudy 54 12.2 49 9.4 83 83 NE 5 7 30.32 1027 9 14.48406 0 0
7:36 pm 19:36 Cloudy 54 12.2 49 9.4 83 83 NE 7 11 30.32 1027 9 14.48406 0 0
7:54 pm 19:54 Cloudy 54 12.2 49 9.4 83 83 NE 9 15 30.32 1027 7 11.26538 0 0
8:54 pm 20:54 Cloudy with Mist and Fog 53 11.7 50 10 89 89 NE 5 7 30.34 1028 5 8.0467 0 0
9:07 pm 21:07 Cloudy with Mist and Fog 53 11.7 50 10 89 89 NE 5 7 30.34 1028 5 8.0467 0 0
9:43 pm 21:43 Cloudy with Mist and Fog 53 11.7 50 10 89 89 NE 6 9 30.34 1028 5 8.0467 0 0
9:54 pm 21:54 Cloudy with Mist and Fog 53 11.7 50 10 89 89 NE 8 13 30.34 1028 6 9.65604 0 0
10:42 pm 22:42 Cloudy 53 11.7 50 10 89 89 NE 8 13 30.33 1027 7 11.26538 0 0
10:54 pm 22:54 Cloudy 53 11.7 50 10 89 89 NE 7 11 30.32 1027 7 11.26538 0 0
11:07 pm 23:07 Cloudy 53 11.7 50 10 89 89 NE 8 13 30.32 1027 7 11.26538 0 0
11:54 pm 23:54 Cloudy 53 11.7 50 10 89 89 ENE 6 9 30.32 1027 7 11.26538 0 0

Powered by AerisWeather